Location: Newark
(33.6333°S, 78.8500°W)
Time: 11:08:20
(UTC+00:00)

Courier 1B - Pass Details

Date: 30 September 2019
Orbit: 962 x 1209 km, 28.3° (Epoch: 22 October)

Event Time Altitude Azimuth Distance (km) Brightness Sun altitude
Rises 16:17:04 0° 339° (NNW) 3,967 11.0 57.2°
Reaches altitude 10° 16:21:26 10° 2° (N) 3,060 10.8 57.6°
Maximum altitude 16:25:08 14° 32° (NNE) 2,786 10.7 57.8°
Drops below altitude 10° 16:28:54 10° 61° (ENE) 3,126 10.6 58.1°
Sets 16:33:26 0° 84° (E) 4,113 10.9 58.3°
